Regional Weather Roundup
Issued by NWS

Home | Current Version | Previous Version | Graphics & Text | Print | Product List | Glossary On
Versions: 1 2 3 4 5 6 7 8 9 10 11 12 13 14 15 16 17 18 19 20 21 22 23 24 25 26 27 28 29 30 31 32 33 34 35 36 37 38 39 40 41 42 43 44 45 46 47 48 49 50
000
ASUS43 KLSX 222359
RWRMO

WEATHER SUMMARY FOR MISSOURI
NATIONAL WEATHER SERVICE SPRINGFIELD MO
600 PM CST SAT NOV 22 2014

NOTE: "FAIR" INDICATES FEW OR NO CLOUDS BELOW 12,000 FEET WITH NO
       SIGNIFICANT WEATHER AND/OR OBSTRUCTIONS TO VISIBILITY.
       CURRENT SKY AND/OR WEATHER CONDITIONS ARE NOT AVAILABLE FOR
       CHILLICOTHE AND FARMINGTON.

MOZ001>031-035>038-043-044-053-054-230100-
...NORTHERN AND WESTERN MISSOURI...

CITY           SKY/WX    TMP DP  RH WIND       PRES   REMARKS
KANSAS CTY INT PTCLDY    54  50  86 S13       29.75F
6HR MIN TEMP:  54; 6HR MAX TEMP:  58;

KANSAS C DTWN  MOCLDY    57  50  77 S10       29.76F
6HR MIN TEMP:  57; 6HR MAX TEMP:  62;

ST JOSEPH      CLEAR     54  51  90 S14       29.73F
6HR MIN TEMP:  51; 6HR MAX TEMP:  57;

CHILLICOTHE      N/A     58  50  75 S10       29.79F
6HR MIN TEMP:  58; 6HR MAX TEMP:  61; 6HR PCP:  0.01;

KIRKSVILLE     MOCLDY    57  50  77 S14       29.81F
6HR MIN TEMP:  57; 6HR MAX TEMP:  59;


$$
MOZ066>068-077>081-088>096-101>105-230100-
...SOUTHWEST MISSOURI...

CITY           SKY/WX    TMP DP  RH WIND       PRES   REMARKS
SPRINGFIELD    CLOUDY    53  50  89 S15       29.86F
6HR MIN TEMP:  53; 6HR MAX TEMP:  57; 6HR PCP:  0.11;

JOPLIN         MOCLDY    53  50  89 S8        29.84S
6HR MIN TEMP:  53; 6HR MAX TEMP:  58; 6HR PCP:  0.01;


$$
MOZ032>034-039>042-045>050-055>058-069>072-230100-
...CENTRAL MISSOURI...

CITY           SKY/WX    TMP DP  RH WIND       PRES   REMARKS
COLUMBIA       MOCLDY    55  50  83 S13       29.86F
6HR MIN TEMP:  55; 6HR MAX TEMP:  60;

JEFFERSON CITY CLOUDY    57  50  77 S9        29.88S
6HR MIN TEMP:  57; 6HR MAX TEMP:  61;

ROLLA          CLOUDY    52  50  93 S13       29.89S
6HR MIN TEMP:  52; 6HR MAX TEMP:  56; 6HR PCP:  0.03;

SEDALIA        MOCLDY    54  50  86 S8        29.84S
6HR MIN TEMP:  54; 6HR MAX TEMP:  62;

WARRENSBURG    MOCLDY    54  48  82 SE5       29.81F
OSAGE BEACH    CLOUDY    55  48  76 S14G21    29.88R

$$
MOZ051-052-059>065-230100-
...EAST CENTRAL MISSOURI...

CITY           SKY/WX    TMP DP  RH WIND       PRES   REMARKS
ST LOUIS INTL  LGT RAIN  56  49  77 S5        29.95S
6HR MIN TEMP:  55; 6HR MAX TEMP:  60; 6HR PCP:  0.04;

SPIRIT OF STL  LGT RAIN  54  50  86 S3        29.93S
6HR MIN TEMP:  53; 6HR MAX TEMP:  58; 6HR PCP:  0.04;

ST CHARLES     CLOUDY    52  49  89 E7        29.93F
6HR MIN TEMP:  51; 6HR MAX TEMP:  59; 6HR PCP: TRACE;


$$
MOZ072>076-082>087-097>100-106>115-230100-
...SOUTH CENTRAL AND SOUTHEAST MISSOURI...

CITY           SKY/WX    TMP DP  RH WIND       PRES   REMARKS
CAPE GIRARDEAU LGT RAIN  57  45  64 S6        30.03R
6HR MIN TEMP:  57; 6HR MAX TEMP:  64; 6HR PCP: TRACE;

FARMINGTON     CLOUDY    52  48  87 SE13G21   30.01R
6HR MIN TEMP:  52; 6HR MAX TEMP:  54; 6HR PCP:  0.08;

POPLAR BLUFF   CLOUDY    57  46  66 SW3       30.02R
6HR MIN TEMP:  57; 6HR MAX TEMP:  64; 6HR PCP:  0.01;

WEST PLAINS    CLOUDY    51  49  92 S15       29.98F
6HR MIN TEMP:  51; 6HR MAX TEMP:  53; 6HR PCP:  0.26;


$$



USA.gov is the U.S. government's official web portal to all federal, state and local government web resources and services.